period_start,C,m1,H,J0,J1,J2,J3,J4,J5,JA,JB,JC,JD,JJ,JK,JN,#
2016-09-16 00:04:07,0.27,4.39,0.00,23.96,28.39,30.94,14.54,49.69,1024.39,2029.80,2008.42,2198.04,2421.54,600.17,598.77,40.86,0000 0000 0000 0000 000000
2016-09-16 00:09:08,0.27,4.40,0.00,23.98,28.40,30.99,14.56,49.65,1024.41,2029.78,2005.26,2195.98,2419.13,600.24,598.83,40.91,0000 0000 0000 0000 000000
2016-09-16 00:14:10,0.23,4.41,0.00,23.98,28.40,30.99,14.68,49.76,1024.43,2029.63,2002.03,2193.93,2416.67,600.20,598.84,40.96,0000 0000 0000 0000 000000
2016-09-16 00:19:11,0.28,4.43,0.00,23.98,28.41,31.02,14.67,49.88,1024.40,2029.59,1998.83,2191.86,2414.17,600.01,598.74,41.01,0000 0000 0000 0000 000000
2016-09-16 00:24:13,0.24,4.44,0.00,24.00,28.42,31.00,14.52,49.69,1024.29,2029.34,1995.54,2189.69,2411.60,599.65,598.27,41.06,0000 0000 0000 0000 000000
2016-09-16 00:29:14,0.27,4.46,0.00,24.01,28.42,31.03,14.62,49.77,1024.10,2029.27,1992.24,2187.60,2409.09,600.11,598.53,41.11,0000 0000 0000 0000 000000
2016-09-16 00:34:15,0.25,4.47,0.00,24.08,28.44,31.00,14.64,49.88,1024.00,2029.08,1988.99,2185.45,2406.51,599.92,598.29,41.16,0000 0000 0000 0000 000000
2016-09-16 00:39:17,0.27,4.48,0.00,24.12,28.45,31.07,14.57,49.76,1023.99,2029.03,1985.68,2183.33,2404.02,599.95,598.22,41.21,0000 0000 0000 0000 000000
2016-09-16 00:44:18,0.26,4.50,0.00,24.14,28.46,31.09,14.65,50.02,1023.97,2029.05,1982.67,2181.28,2401.57,599.80,597.90,41.26,0000 0000 0000 0000 000000
2016-09-16 00:49:19,0.28,4.51,0.00,24.18,28.47,31.09,14.55,49.90,1023.96,2029.01,1979.45,2179.19,2399.08,599.78,597.71,41.31,0000 0000 0000 0000 000000
2016-09-16 00:54:20,0.27,4.52,0.00,24.19,28.48,31.11,14.57,49.92,1023.97,2029.01,1976.22,2177.14,2396.55,599.76,597.73,41.36,0000 0000 0000 0000 000000
2016-09-16 00:59:22,0.29,4.54,0.00,24.22,28.50,31.14,14.60,49.92,1023.95,2029.00,1972.82,2174.99,2393.94,600.13,598.06,41.41,0000 0000 0000 0000 000000
2016-09-16 01:04:23,0.29,4.55,0.00,24.26,28.51,31.23,14.58,49.82,1023.97,2029.00,1969.44,2172.85,2391.31,599.62,597.43,41.46,0000 0000 0000 0000 000000
2016-09-16 01:09:24,0.29,4.57,0.00,24.28,28.52,31.25,14.55,49.83,1023.95,2029.00,1966.07,2170.69,2388.77,599.83,597.58,41.51,0000 0000 0000 0000 000000
2016-09-16 01:14:26,0.29,4.58,0.00,24.32,28.55,31.28,14.62,50.07,1023.96,2028.99,1962.64,2168.50,2386.12,599.97,597.64,41.56,0000 0000 0000 0000 000000
2016-09-16 01:19:27,0.31,4.60,0.00,24.46,28.56,31.27,14.56,49.95,1023.95,2028.98,1959.11,2166.24,2383.42,599.94,597.30,41.61,0000 0000 0000 0000 000000
2016-09-16 01:24:28,0.29,4.61,0.00,24.50,28.58,31.29,14.54,49.70,1023.94,2028.98,1955.63,2164.02,2380.73,600.01,597.30,41.66,0000 0000 0000 0000 000000
2016-09-16 01:29:30,0.29,4.63,0.00,24.50,28.60,31.29,14.47,49.91,1023.94,2028.90,1952.11,2161.73,2378.06,600.02,597.34,41.71,0000 0000 0000 0000 000000
2016-09-16 01:34:31,0.27,4.64,0.00,24.54,28.62,31.25,14.47,49.98,1023.94,2028.73,1948.64,2159.55,2375.45,599.71,596.78,41.77,0000 0000 0000 0000 000000
2016-09-16 01:39:32,0.23,4.65,0.00,24.52,28.63,31.29,14.53,49.94,1023.91,2028.35,1945.34,2157.41,2372.87,599.88,597.20,41.82,0000 0000 0000 0000 000000
2016-09-16 01:44:33,0.28,4.67,0.00,24.52,28.65,31.30,14.60,50.06,1023.84,2028.06,1941.98,2155.26,2370.32,600.05,597.22,41.87,0000 0000 0000 0000 000000
2016-09-16 01:49:34,0.29,4.68,0.00,24.52,28.67,31.35,14.47,49.98,1023.90,2028.01,1938.52,2153.12,2367.78,599.54,596.75,41.92,0000 0000 0000 0000 000000
2016-09-16 01:54:36,0.29,4.70,0.00,24.53,28.69,31.38,14.54,50.00,1023.94,2028.01,1935.12,2150.97,2365.34,600.00,597.15,41.97,0000 0000 0000 0000 000000
2016-09-16 01:59:37,0.30,4.71,0.00,24.53,28.71,31.41,14.52,49.85,1023.94,2028.00,1931.73,2148.74,2362.70,599.69,596.93,42.02,0000 0000 0000 0000 000000
2016-09-16 02:04:38,0.31,4.73,0.00,24.49,28.73,31.36,14.56,50.13,1023.94,2028.00,1928.15,2146.43,2360.03,599.94,597.36,42.07,0000 0000 0000 0000 000000
2016-09-16 02:09:40,0.30,4.75,0.00,24.51,28.75,31.42,14.54,50.06,1023.94,2028.00,1924.62,2144.23,2357.35,599.57,596.77,42.12,0000 0000 0000 0000 000000
2016-09-16 02:14:41,0.32,4.76,0.00,24.60,28.77,31.45,14.57,50.01,1023.94,2027.97,1921.02,2141.89,2354.60,600.07,597.27,42.17,0000 0000 0000 0000 000000
2016-09-16 02:19:42,0.29,4.78,0.00,24.65,28.80,31.50,14.60,50.09,1023.93,2027.93,1917.52,2139.64,2351.90,600.09,597.04,42.22,0000 0000 0000 0000 000000
2016-09-16 02:24:44,0.27,4.79,0.00,24.66,28.81,31.50,14.62,50.27,1023.86,2027.69,1914.16,2137.45,2349.31,600.23,597.17,42.27,0000 0000 0000 0000 000000
2016-09-16 02:29:45,0.29,4.81,0.00,24.70,28.84,31.53,14.53,50.08,1023.82,2027.50,1910.60,2135.24,2346.67,600.22,597.13,42.32,0000 0000 0000 0000 000000
2016-09-16 02:34:46,0.27,4.82,0.00,24.67,28.86,31.52,14.55,50.20,1023.83,2027.11,1907.11,2132.98,2344.00,600.02,597.06,42.37,0000 0000 0000 0000 000000
2016-09-16 02:39:48,0.30,4.84,0.00,24.64,28.88,31.53,14.60,50.05,1023.86,2027.03,1903.69,2130.76,2341.38,600.45,597.40,42.42,0000 0000 0000 0000 000000
2016-09-16 02:44:49,0.30,4.85,0.00,24.68,28.90,31.56,14.50,50.10,1023.77,2027.00,1900.18,2128.50,2338.69,599.77,596.55,42.47,0000 0000 0000 0000 000000
2016-09-16 02:49:50,0.32,4.87,0.00,24.74,28.92,31.62,14.57,50.28,1023.69,2027.00,1896.72,2126.26,2336.02,599.95,596.63,42.52,0000 0000 0000 0000 000000
2016-09-16 02:54:52,0.31,4.88,0.00,24.82,28.93,31.72,14.63,50.26,1023.51,2027.00,1893.19,2124.07,2333.34,600.40,596.84,42.57,0000 0000 0000 0000 000000
2016-09-16 02:59:53,0.31,4.90,0.00,24.90,28.95,31.76,14.52,50.07,1023.49,2027.00,1889.63,2121.80,2330.70,599.98,596.27,42.62,0000 0000 0000 0000 000000
2016-09-16 03:04:54,0.32,4.92,0.00,24.89,28.97,31.82,14.62,50.28,1023.48,2026.99,1885.99,2119.47,2327.92,600.27,596.47,42.67,0000 0000 0000 0000 000000
2016-09-16 03:09:55,0.34,4.93,0.00,24.91,28.99,31.90,14.60,50.34,1023.45,2026.98,1882.24,2117.07,2325.05,600.31,596.65,42.73,0000 0000 0000 0000 000000
2016-09-16 03:14:57,0.35,4.95,0.00,24.90,29.00,31.95,14.56,50.45,1023.45,2026.96,1878.27,2114.60,2322.08,599.98,596.06,42.78,0000 0000 0000 0000 000000
2016-09-16 03:19:58,0.32,4.97,0.00,24.97,29.02,31.97,14.55,50.43,1023.44,2026.70,1874.21,2112.06,2319.08,599.84,595.91,42.83,0000 0000 0000 0000 000000
2016-09-16 03:24:59,0.29,4.98,0.00,24.95,29.05,32.00,14.53,50.25,1023.41,2026.32,1870.31,2109.74,2316.12,599.88,596.00,42.88,0000 0000 0000 0000 000000
2016-09-16 03:30:00,0.35,5.00,0.00,24.89,29.07,31.97,14.52,50.38,1023.41,2026.14,1866.33,2107.30,2313.17,599.76,595.97,42.93,0000 0000 0000 0000 000000
2016-09-16 03:35:02,0.35,5.02,0.00,24.88,29.08,31.97,14.48,50.39,1023.29,2026.05,1862.36,2104.77,2310.20,599.84,596.03,42.98,0000 0000 0000 0000 000000
2016-09-16 03:40:03,0.35,5.04,0.00,24.88,29.10,32.00,14.58,50.43,1023.16,2026.02,1858.48,2102.34,2307.25,600.12,596.17,43.03,0000 0000 0000 0000 000000
2016-09-16 03:45:04,0.37,5.05,0.00,24.91,29.12,32.02,14.52,50.38,1023.06,2026.01,1854.54,2099.72,2304.18,600.11,596.21,43.08,0000 0000 0000 0000 000000
2016-09-16 03:50:06,0.39,5.07,0.00,24.94,29.14,31.96,14.60,50.49,1023.02,2026.00,1850.46,2097.07,2301.11,600.26,596.09,43.13,0000 0000 0000 0000 000000
2016-09-16 03:55:07,0.39,5.09,0.00,24.96,29.16,32.00,14.52,50.52,1022.98,2026.00,1846.25,2094.34,2297.90,600.22,595.94,43.18,0000 0000 0000 0000 000000
2016-09-16 04:00:08,0.41,5.11,0.00,25.00,29.19,32.05,14.59,50.56,1022.97,2025.98,1841.79,2091.55,2294.61,600.08,595.85,43.23,0000 0000 0000 0000 000000
2016-09-16 04:05:09,0.41,5.13,0.00,25.03,29.21,32.09,14.56,50.60,1022.96,2025.96,1837.34,2088.71,2291.18,599.96,595.63,43.28,0000 0000 0000 0000 000000
2016-09-16 04:10:11,0.38,5.15,0.00,25.06,29.24,32.10,14.49,50.51,1022.96,2025.60,1832.83,2085.79,2287.78,599.37,594.92,43.33,0000 0000 0000 0000 000000
2016-09-16 04:15:12,0.38,5.17,0.00,25.10,29.27,32.14,14.57,50.50,1022.96,2025.13,1828.19,2082.85,2284.27,600.43,595.99,43.38,0000 0000 0000 0000 000000
2016-09-16 04:20:13,0.43,5.19,0.00,25.19,29.30,32.12,14.55,50.48,1022.96,2025.01,1823.51,2079.89,2280.78,600.21,595.48,43.43,0000 0000 0000 0000 000000
2016-09-16 04:25:15,0.45,5.22,0.00,25.22,29.33,32.17,14.43,50.57,1022.92,2025.00,1818.78,2076.91,2277.25,599.46,594.68,43.48,0000 0000 0000 0000 000000
2016-09-16 04:30:16,0.44,5.24,0.00,25.26,29.36,32.17,14.55,50.69,1022.87,2025.00,1814.06,2073.92,2273.70,600.18,595.27,43.53,0000 0000 0000 0000 000000
2016-09-16 04:35:17,0.44,5.26,0.00,25.37,29.39,32.22,14.58,50.67,1022.88,2024.98,1809.32,2070.96,2270.14,600.42,595.26,43.58,0000 0000 0000 0000 000000
2016-09-16 04:40:18,0.45,5.28,0.00,25.41,29.42,32.28,14.49,50.64,1022.82,2024.95,1804.62,2067.96,2266.59,600.00,594.76,43.63,0000 0000 0000 0000 000000
2016-09-16 04:45:20,0.40,5.31,0.00,25.40,29.46,32.27,14.49,50.82,1022.80,2024.65,1799.75,2064.86,2262.97,600.13,594.96,43.68,0000 0000 0000 0000 000000
2016-09-16 04:50:21,0.41,5.33,0.00,25.40,29.49,32.32,14.53,50.74,1022.82,2024.12,1794.92,2061.86,2259.36,599.77,594.60,43.74,0000 0000 0000 0000 000000
2016-09-16 04:55:22,0.43,5.35,0.00,25.39,29.52,32.33,14.45,50.54,1022.84,2024.03,1790.36,2058.94,2255.94,599.91,594.83,43.79,0000 0000 0000 0000 000000
2016-09-16 05:00:24,0.44,5.37,0.00,25.41,29.55,32.40,14.57,50.82,1022.76,2024.01,1785.81,2056.08,2252.55,599.78,594.58,43.84,0000 0000 0000 0000 000000
2016-09-16 05:05:25,0.39,5.39,0.00,25.46,29.58,32.39,14.45,50.69,1022.84,2024.00,1781.55,2053.37,2249.33,599.68,594.57,43.89,0000 0000 0000 0000 000000
2016-09-16 05:10:27,0.50,5.41,0.00,25.58,29.61,32.38,14.54,50.67,1022.76,2023.98,1777.14,2050.26,2245.72,600.14,594.58,43.94,0000 0000 0000 0000 000000
2016-09-16 05:15:28,0.51,5.44,0.00,25.81,29.65,32.56,14.53,50.94,1022.68,2023.92,1771.60,2046.72,2241.47,600.04,593.78,43.99,0000 0000 0000 0000 000000
2016-09-16 05:20:29,0.30,5.46,0.00,26.08,29.69,32.52,14.51,50.73,1022.55,2023.27,1767.31,2044.09,2238.39,600.28,593.61,44.04,0000 0000 0000 0000 000000
2016-09-16 05:25:31,0.35,5.48,0.00,26.35,29.74,32.32,14.41,50.75,1022.60,2023.05,1763.64,2041.62,2235.56,600.18,592.95,44.09,0000 0000 0000 0000 000000
2016-09-16 05:30:32,0.37,5.50,0.00,26.26,29.80,32.29,14.45,50.67,1022.66,2023.00,1759.88,2039.22,2232.68,599.90,593.02,44.14,0000 0000 0000 0000 000000
2016-09-16 05:35:33,0.37,5.51,0.00,26.04,29.86,32.34,14.40,50.59,1022.59,2022.97,1756.10,2036.75,2229.80,600.20,593.63,44.19,0000 0000 0000 0000 000000
2016-09-16 05:40:35,0.29,5.53,0.00,25.89,29.92,32.47,14.41,50.52,1022.56,2022.67,1752.55,2034.44,2227.12,599.83,593.61,44.24,0000 0000 0000 0000 000000
2016-09-16 05:45:36,0.33,5.55,0.00,25.79,29.96,32.65,14.49,50.65,1022.55,2022.14,1748.81,2031.98,2224.24,599.72,593.59,44.29,0000 0000 0000 0000 000000
2016-09-16 05:50:37,0.42,5.57,0.00,25.72,30.00,32.82,14.54,50.75,1022.49,2022.02,1744.65,2029.17,2220.94,599.85,593.85,44.34,0000 0000 0000 0000 000000
2016-09-16 05:55:39,0.44,5.59,0.00,25.64,30.02,33.04,14.50,50.83,1022.49,2022.00,1740.51,2026.32,2217.68,599.78,593.94,44.39,0000 0000 0000 0000 000000
2016-09-16 06:00:39,0.38,5.61,0.00,25.58,30.03,33.10,14.54,50.73,1022.48,2022.00,1736.62,2023.71,2214.63,599.83,594.12,44.44,0000 0000 0000 0000 000000
2016-09-16 06:05:41,0.33,5.63,0.00,25.53,30.04,33.09,14.56,50.95,1022.48,2022.00,1733.19,2021.42,2211.99,600.15,594.50,44.49,0000 0000 0000 0000 000000
2016-09-16 06:10:42,0.34,5.65,0.00,25.50,30.03,33.06,14.49,50.77,1022.48,2021.98,1729.88,2019.28,2209.51,599.79,594.11,44.54,0000 0000 0000 0000 000000
2016-09-16 06:15:43,0.39,5.66,0.00,25.47,30.02,33.01,14.50,50.87,1022.48,2021.99,1726.31,2016.72,2206.49,599.97,594.68,44.59,0000 0000 0000 0000 000000
2016-09-16 06:20:44,0.30,5.68,0.00,25.44,30.01,32.94,14.53,51.19,1022.39,2021.98,1723.27,2014.65,2204.14,599.89,594.42,44.64,0000 0000 0000 0000 000000
2016-09-16 06:25:45,0.26,5.70,0.00,25.41,30.00,32.93,14.54,51.17,1022.13,2021.98,1720.52,2012.94,2202.15,599.81,594.23,44.70,0000 0000 0000 0000 000000
2016-09-16 06:30:46,0.26,5.71,0.00,25.39,29.97,32.88,14.51,50.87,1022.03,2021.99,1717.73,2011.31,2200.16,599.96,594.30,44.75,0000 0000 0000 0000 000000
2016-09-16 06:35:48,0.28,5.72,0.00,25.37,29.95,32.82,14.56,51.03,1021.99,2021.99,1714.99,2009.58,2198.19,599.99,594.38,44.80,0000 0000 0000 0000 000000
2016-09-16 06:40:49,0.27,5.74,0.00,25.37,29.93,32.76,14.52,51.09,1021.99,2021.99,1712.18,2007.90,2196.15,599.54,593.98,44.85,0000 0000 0000 0000 000000
2016-09-16 06:45:50,0.34,5.75,0.00,25.37,29.90,32.73,14.47,50.88,1021.98,2021.99,1708.93,2005.89,2193.77,599.42,593.80,44.90,0000 0000 0000 0000 000000
2016-09-16 06:50:51,0.31,5.77,0.00,25.37,29.88,32.70,14.52,50.98,1021.96,2022.00,1705.68,2003.81,2191.42,599.61,594.05,44.95,0000 0000 0000 0000 000000
2016-09-16 06:55:53,0.25,5.78,0.00,25.36,29.86,32.66,14.54,51.00,1021.90,2022.01,1703.20,2002.22,2189.55,599.62,594.10,45.00,0000 0000 0000 0000 000000
2016-09-16 07:00:54,0.26,5.80,0.00,25.37,29.83,32.63,14.49,51.13,1021.72,2022.04,1700.81,2000.63,2187.67,600.08,594.41,45.05,0000 0000 0000 0000 000000
2016-09-16 07:05:55,0.18,5.81,0.00,25.37,29.81,32.61,14.49,51.17,1021.56,2022.06,1698.86,1999.39,2186.09,599.55,593.71,45.10,0000 0000 0000 0000 000000
2016-09-16 07:10:57,0.22,5.82,0.00,25.36,29.79,32.57,14.48,51.20,1021.52,2022.25,1696.96,1998.14,2184.68,599.90,594.07,45.15,0000 0000 0000 0000 000000
2016-09-16 07:15:58,0.24,5.83,0.00,25.35,29.77,32.56,14.52,51.31,1021.52,2022.44,1694.93,1996.79,2183.20,599.99,594.17,45.20,0000 0000 0000 0000 000000
2016-09-16 07:20:59,0.24,5.84,0.00,25.36,29.76,32.52,14.43,51.11,1021.51,2022.78,1693.09,1995.63,2181.74,599.86,594.00,45.25,0000 0000 0000 0000 000000
2016-09-16 07:26:01,0.21,5.85,0.00,25.35,29.74,32.52,14.50,51.13,1021.50,2022.94,1691.12,1994.39,2180.32,599.85,593.90,45.30,0000 0000 0000 0000 000000
2016-09-16 07:31:02,0.20,5.87,0.00,25.36,29.72,32.51,14.52,51.35,1021.50,2022.97,1689.02,1993.12,2178.76,599.66,593.84,45.35,0000 0000 0000 0000 000000
2016-09-16 07:36:03,0.22,5.88,0.00,25.37,29.70,32.48,14.52,51.00,1021.50,2022.99,1686.94,1991.81,2177.26,599.94,594.13,45.40,0000 0000 0000 0000 000000
2016-09-16 07:41:05,0.22,5.89,0.00,25.37,29.68,32.46,14.54,51.41,1021.50,2022.99,1684.84,1990.54,2175.69,600.13,594.31,45.45,0000 0000 0000 0000 000000
2016-09-16 07:46:06,0.20,5.90,0.00,25.38,29.66,32.44,14.51,51.49,1021.50,2022.99,1682.65,1989.20,2174.24,599.77,594.14,45.50,0000 0000 0000 0000 000000
2016-09-16 07:51:07,0.25,5.91,0.00,25.37,29.65,32.40,14.45,51.13,1021.50,2022.99,1680.36,1987.75,2172.59,600.12,594.26,45.55,0000 0000 0000 0000 000000
2016-09-16 07:56:08,0.25,5.92,0.00,25.38,29.63,32.39,14.50,51.24,1021.49,2022.99,1677.83,1986.25,2170.71,599.94,594.07,45.61,0000 0000 0000 0000 000000
2016-09-16 08:01:10,0.22,5.93,0.00,25.38,29.62,32.40,14.48,51.27,1021.48,2022.99,1675.50,1984.83,2169.09,599.62,593.75,45.66,0000 0000 0000 0000 000000
2016-09-16 08:06:11,0.24,5.95,0.00,25.38,29.60,32.36,14.53,51.35,1021.49,2023.00,1673.17,1983.58,2167.51,599.60,593.68,45.71,0000 0000 0000 0000 000000
2016-09-16 08:11:12,0.22,5.96,0.00,25.41,29.60,32.36,14.48,51.04,1021.31,2023.02,1670.91,1982.37,2165.87,600.38,594.36,45.76,0000 0000 0000 0000 000000
2016-09-16 08:16:13,0.22,5.97,0.00,25.42,29.58,32.30,14.48,51.37,1021.12,2023.04,1668.55,1980.92,2164.24,599.79,593.57,45.81,0000 0000 0000 0000 000000
2016-09-16 08:21:15,0.26,5.98,0.00,25.42,29.57,32.28,14.48,51.37,1021.05,2023.04,1666.22,1979.56,2162.51,599.83,593.58,45.86,0000 0000 0000 0000 000000
2016-09-16 08:26:16,0.24,5.99,0.00,25.44,29.55,32.28,14.52,51.48,1021.03,2023.13,1663.91,1978.18,2160.89,599.82,593.54,45.91,0000 0000 0000 0000 000000
2016-09-16 08:31:17,0.23,6.01,0.00,25.44,29.55,32.26,14.63,51.50,1021.04,2023.23,1661.62,1976.80,2159.32,600.35,593.98,45.96,0000 0000 0000 0000 000000
2016-09-16 08:36:18,0.28,6.02,0.00,25.43,29.54,32.26,14.51,51.17,1021.03,2023.45,1659.38,1975.52,2157.70,600.11,593.93,46.01,0000 0000 0000 0000 000000
2016-09-16 08:41:20,0.22,6.03,0.00,25.42,29.52,32.22,14.54,51.33,1021.03,2023.83,1657.25,1974.26,2156.24,599.94,593.73,46.06,0000 0000 0000 0000 000000
2016-09-16 08:46:21,0.23,6.04,0.00,25.42,29.52,32.23,14.52,51.44,1021.01,2023.85,1655.15,1972.97,2154.69,599.73,593.51,46.11,0000 0000 0000 0000 000000
2016-09-16 08:51:22,0.21,6.06,0.00,25.41,29.51,32.23,14.47,51.23,1021.02,2023.77,1652.98,1971.73,2153.25,600.12,593.81,46.16,0000 0000 0000 0000 000000
2016-09-16 08:56:23,0.18,6.07,0.00,25.41,29.50,32.23,14.51,51.33,1021.02,2023.78,1651.25,1970.57,2151.85,600.21,593.99,46.21,0000 0000 0000 0000 000000
2016-09-16 09:01:25,0.09,6.07,0.00,25.41,29.50,32.23,14.57,51.48,1021.03,2023.60,1649.81,1969.79,2150.82,600.51,594.10,46.26,0000 0000 0000 0000 000000
2016-09-16 09:06:26,0.12,6.08,0.00,25.40,29.50,32.21,14.48,51.27,1021.03,2023.45,1648.54,1969.00,2149.87,599.91,593.85,46.31,0000 0000 0000 0000 000000
2016-09-16 09:11:27,0.11,6.08,0.00,25.40,29.48,32.19,14.49,51.38,1021.03,2023.32,1647.35,1968.14,2149.02,599.94,593.73,46.36,0000 0000 0000 0000 000000
2016-09-16 09:16:28,0.11,6.09,0.00,25.40,29.47,32.20,14.53,51.51,1021.02,2023.26,1646.08,1967.55,2148.16,600.26,594.02,46.41,0000 0000 0000 0000 000000
2016-09-16 09:21:29,0.12,6.10,0.00,25.40,29.47,32.16,14.52,51.50,1021.01,2023.27,1644.84,1966.93,2147.36,600.23,594.07,46.46,0000 0000 0000 0000 000000
2016-09-16 09:26:30,0.16,6.10,0.00,25.40,29.47,32.18,14.50,51.36,1021.01,2023.40,1643.68,1966.11,2146.60,599.99,593.83,46.51,0000 0000 0000 0000 000000
2016-09-16 09:31:32,0.10,6.11,0.00,25.41,29.46,32.15,14.44,51.26,1021.01,2023.49,1642.53,1965.50,2145.78,599.87,593.56,46.56,0000 0000 0000 0000 000000
2016-09-16 09:36:33,0.12,6.11,0.00,25.39,29.45,32.16,14.55,51.66,1021.00,2023.56,1641.46,1964.98,2145.02,599.86,593.76,46.61,0000 0000 0000 0000 000000
2016-09-16 09:41:34,0.10,6.12,0.00,25.37,29.45,32.18,14.51,51.48,1020.80,2023.63,1640.69,1964.20,2144.30,600.08,593.86,46.66,0000 0000 0000 0000 000000
2016-09-16 09:46:35,0.09,6.12,0.00,25.37,29.45,32.18,14.50,51.52,1020.63,2023.69,1639.62,1963.90,2143.81,599.99,593.57,46.72,0000 0000 0000 0000 000000
2016-09-16 09:51:36,0.12,6.13,0.00,25.35,29.45,32.12,14.45,51.49,1020.78,2023.84,1638.64,1963.09,2143.04,600.10,593.96,46.77,0000 0000 0000 0000 000000
2016-09-16 09:56:38,0.08,6.14,0.00,25.36,29.44,32.18,14.46,51.52,1020.65,2023.89,1637.78,1962.82,2142.33,600.05,593.73,46.82,0000 0000 0000 0000 000000
2016-09-16 10:01:39,0.09,6.14,0.00,25.35,29.42,32.13,14.52,51.76,1020.55,2023.83,1636.84,1962.06,2141.82,600.06,593.70,46.87,0000 0000 0000 0000 000000
2016-09-16 10:06:40,0.09,6.15,0.00,25.34,29.42,32.13,14.45,51.49,1020.55,2023.95,1635.95,1961.79,2141.05,599.66,593.26,46.92,0000 0000 0000 0000 000000
2016-09-16 10:11:41,0.11,6.15,0.00,25.33,29.42,32.10,14.51,51.67,1020.58,2023.94,1634.97,1961.03,2140.31,600.06,593.67,46.97,0000 0000 0000 0000 000000
2016-09-16 10:16:42,0.10,6.16,0.00,25.32,29.42,32.10,14.58,51.79,1020.63,2023.96,1634.03,1960.45,2139.82,600.33,594.02,47.02,0000 0000 0000 0000 000000
2016-09-16 10:21:44,0.08,6.16,0.00,25.32,29.40,32.09,14.53,51.51,1020.63,2023.98,1633.12,1960.00,2139.05,599.98,593.71,47.07,0000 0000 0000 0000 000000
2016-09-16 10:26:45,0.11,6.17,0.00,25.32,29.40,32.06,14.47,51.55,1020.71,2023.98,1632.23,1959.49,2138.55,599.97,593.69,47.12,0000 0000 0000 0000 000000
2016-09-16 10:31:46,0.06,6.17,0.00,25.32,29.40,32.06,14.59,51.74,1020.78,2023.98,1631.31,1958.98,2137.96,600.41,594.22,47.17,0000 0000 0000 0000 000000
2016-09-16 10:36:47,0.12,6.18,0.00,25.32,29.40,32.02,14.43,51.44,1020.84,2023.97,1630.51,1958.30,2137.13,599.85,593.73,47.22,0000 0000 0000 0000 000000
2016-09-16 10:41:48,0.02,6.18,0.00,25.32,29.39,32.06,14.45,51.37,1020.71,2023.98,1630.01,1958.00,2136.88,600.14,593.86,47.27,0000 0000 0000 0000 000000
2016-09-16 10:46:49,0.06,6.18,0.00,25.32,29.38,32.08,14.39,51.45,1020.55,2023.96,1629.63,1957.85,2136.14,599.76,593.26,47.32,0000 0000 0000 0000 000000
2016-09-16 10:51:51,0.06,6.19,0.00,25.33,29.37,32.05,14.46,51.40,1020.54,2023.97,1629.01,1957.11,2135.99,600.02,593.62,47.37,0000 0000 0000 0000 000000
2016-09-16 10:56:52,0.06,6.19,0.00,25.31,29.37,32.08,14.54,51.78,1020.57,2023.97,1628.39,1957.00,2135.51,600.09,593.84,47.42,0000 0000 0000 0000 000000
2016-09-16 11:01:54,0.05,6.19,0.00,25.31,29.37,32.03,14.51,51.73,1020.66,2023.97,1627.92,1956.56,2135.02,599.98,593.73,47.47,0000 0000 0000 0000 000000
2016-09-16 11:06:55,0.07,6.20,0.00,25.30,29.37,32.00,14.53,51.45,1020.69,2023.96,1627.09,1956.03,2134.69,599.97,593.78,47.52,0000 0000 0000 0000 000000
2016-09-16 11:11:56,0.06,6.20,0.00,25.29,29.35,31.99,14.52,51.48,1020.91,2023.97,1626.43,1955.96,2134.03,600.07,594.07,47.57,0000 0000 0000 0000 000000
2016-09-16 11:16:57,0.06,6.20,0.00,25.31,29.35,31.96,14.44,51.42,1021.00,2023.98,1625.95,1955.24,2133.80,599.91,593.89,47.63,0000 0000 0000 0000 000000
2016-09-16 11:21:59,0.07,6.21,0.00,25.29,29.35,31.92,14.51,51.51,1021.00,2023.98,1625.16,1955.00,2133.09,600.08,594.04,47.68,0000 0000 0000 0000 000000
2016-09-16 11:27:00,0.03,6.21,0.00,25.27,29.34,31.97,14.53,51.45,1021.01,2023.97,1624.76,1954.83,2132.98,599.61,593.64,47.73,0000 0000 0000 0000 000000
2016-09-16 11:32:01,0.10,6.21,0.00,25.27,29.32,31.97,14.51,51.33,1021.01,2023.98,1624.05,1954.12,2132.34,600.00,593.86,47.78,0000 0000 0000 0000 000000
2016-09-16 11:37:02,0.03,6.21,0.00,25.27,29.32,31.92,14.42,51.33,1021.01,2023.99,1623.61,1954.00,2132.00,599.61,593.72,47.83,0000 0000 0000 0000 000000
2016-09-16 11:42:04,0.04,6.22,0.00,25.26,29.32,31.96,14.45,51.31,1021.01,2023.98,1622.98,1953.78,2131.70,600.14,594.21,47.88,0000 0000 0000 0000 000000
2016-09-16 11:47:05,0.10,6.22,0.00,25.26,29.31,32.00,14.59,51.47,1021.01,2023.98,1622.18,1953.06,2131.03,600.14,594.31,47.93,0000 0000 0000 0000 000000
2016-09-16 11:52:06,0.01,6.22,0.00,25.25,29.30,31.95,14.55,51.31,1021.02,2023.98,1621.89,1953.00,2130.97,600.27,594.30,47.98,0000 0000 0000 0000 000000
2016-09-16 11:57:08,0.07,6.23,0.00,25.25,29.30,31.90,14.47,51.41,1021.02,2023.99,1621.09,1952.81,2130.33,600.14,594.26,48.03,0000 0000 0000 0000 000000
2016-09-16 12:02:09,0.08,6.23,0.00,25.23,29.30,31.90,14.52,51.36,1021.01,2023.99,1620.52,1952.09,2130.00,600.05,594.23,48.08,0000 0000 0000 0000 000000
2016-09-16 12:07:11,0.03,6.23,0.00,25.25,29.30,31.85,14.55,51.47,1021.03,2023.99,1620.00,1952.00,2129.61,600.24,594.38,48.13,0000 0000 0000 0000 000000
2016-09-16 12:12:12,0.08,6.24,0.00,25.26,29.28,31.85,14.45,51.06,1021.02,2023.99,1619.39,1951.71,2129.02,600.09,594.28,48.18,0000 0000 0000 0000 000000
2016-09-16 12:17:13,0.03,6.24,0.00,25.25,29.27,31.89,14.51,51.61,1021.04,2023.99,1618.96,1951.06,2128.94,599.79,593.98,48.23,0000 0000 0000 0000 000000
2016-09-16 12:22:14,0.07,6.24,0.00,25.24,29.27,31.83,14.50,51.68,1021.04,2023.99,1618.21,1950.98,2128.25,600.00,594.11,48.28,0000 0000 0000 0000 000000
2016-09-16 12:27:15,0.06,6.25,0.00,25.23,29.27,31.84,14.54,51.58,1021.27,2023.99,1617.77,1950.36,2128.00,600.37,594.62,48.33,0000 0000 0000 0000 000000
2016-09-16 12:32:17,0.06,6.25,0.00,25.22,29.27,31.83,14.52,51.41,1021.41,2023.99,1617.03,1950.02,2127.53,599.93,594.36,48.38,0000 0000 0000 0000 000000
2016-09-16 12:37:18,0.04,6.25,0.00,25.20,29.27,31.86,14.46,51.48,1021.34,2023.99,1616.62,1949.97,2127.02,600.00,594.39,48.43,0000 0000 0000 0000 000000
2016-09-16 12:42:20,0.07,6.26,0.00,25.20,29.26,31.84,14.54,51.43,1021.10,2023.99,1615.99,1949.39,2126.88,600.15,594.45,48.48,0000 0000 0000 0000 000000
2016-09-16 12:47:21,0.07,6.26,0.00,25.17,29.25,31.84,14.47,51.40,1021.09,2023.99,1615.23,1949.00,2126.11,599.78,594.04,48.53,0000 0000 0000 0000 000000
2016-09-16 12:52:22,0.04,6.26,0.00,25.16,29.25,31.86,14.54,51.42,1021.07,2023.99,1614.71,1948.80,2125.93,600.08,594.38,48.58,0000 0000 0000 0000 000000
2016-09-16 12:57:24,0.09,6.27,0.00,25.15,29.25,31.87,14.48,51.48,1021.04,2023.99,1614.02,1948.06,2125.13,599.92,594.23,48.64,0000 0000 0000 0000 000000